VOI152 MMMX-MMGL

Flight info

Callsign VOI152
Flight time 0h 48m
Altitude 32000
Route OVAGO3A OVAGO UT123 IGSON IGSON1B
Aircraft A320/M-SDE3FGHIRWY/LB1

Departure

Time 2026-05-06 15:24
Airport Mexico City Benito Juárez International Airport (MMMX)

Arrival

Time 2026-05-06 16:12
Airport Guadalajara International Airport (MMGL)
Time Latitude Longitude Altitude Speed Heading
2026-05-06 15:21 19.43010 -99.08923 7303 ft 10 kts 210°
2026-05-06 15:21 19.42946 -99.08955 7303 ft 10 kts 219°
2026-05-06 15:21 19.42904 -99.09015 7303 ft 10 kts 226°
2026-05-06 15:22 19.42843 -99.09055 7303 ft 11 kts 207°
2026-05-06 15:22 19.42782 -99.09087 7303 ft 7 kts 202°
2026-05-06 15:22 19.42757 -99.09059 7303 ft 6 kts 79°
2026-05-06 15:22 19.42780 -99.09013 7303 ft 8 kts 58°
2026-05-06 15:23 19.42897 -99.08803 7303 ft 68 kts 59°
2026-05-06 15:23 19.43253 -99.08171 7303 ft 128 kts 59°
2026-05-06 15:23 19.43794 -99.07205 7306 ft 175 kts 59°
2026-05-06 15:23 19.44439 -99.06056 7901 ft 183 kts 59°
2026-05-06 15:24 19.45101 -99.04885 8843 ft 186 kts 59°
2026-05-06 15:24 19.45781 -99.03681 9368 ft 200 kts 59°
2026-05-06 15:24 19.46533 -99.02346 9600 ft 223 kts 59°
2026-05-06 15:24 19.47374 -99.00851 9867 ft 248 kts 59°
2026-05-06 15:25 19.48295 -98.99209 10418 ft 267 kts 59°
2026-05-06 15:25 19.49230 -98.97489 10969 ft 272 kts 65°
2026-05-06 15:25 19.49558 -98.95552 11496 ft 276 kts 97°
2026-05-06 15:25 19.48794 -98.93703 12097 ft 279 kts 131°
2026-05-06 15:26 19.47175 -98.92581 12672 ft 285 kts 163°
2026-05-06 15:26 19.45189 -98.92558 13257 ft 293 kts 195°
2026-05-06 15:26 19.43442 -98.93671 13838 ft 300 kts 227°
2026-05-06 15:26 19.42324 -98.95546 14392 ft 304 kts 242°
2026-05-06 15:27 19.41338 -98.97544 14957 ft 306 kts 241°
2026-05-06 15:27 19.40346 -98.99550 15512 ft 308 kts 241°
2026-05-06 15:27 19.39346 -99.01567 16059 ft 310 kts 240°
2026-05-06 15:27 19.38336 -99.03602 16605 ft 312 kts 240°
2026-05-06 15:28 19.37378 -99.05677 17138 ft 316 kts 248°
2026-05-06 15:28 19.36811 -99.07962 17355 ft 330 kts 260°
2026-05-06 15:28 19.36463 -99.10414 17619 ft 341 kts 260°
2026-05-06 15:28 19.36110 -99.12909 18092 ft 344 kts 259°
2026-05-06 15:29 19.35746 -99.15428 18588 ft 347 kts 259°
2026-05-06 15:29 19.35379 -99.17957 19033 ft 349 kts 259°
2026-05-06 15:29 19.35007 -99.20503 19480 ft 350 kts 259°
2026-05-06 15:29 19.34631 -99.23057 19936 ft 352 kts 259°
2026-05-06 15:30 19.34253 -99.25620 20390 ft 353 kts 258°
2026-05-06 15:30 19.33874 -99.28191 20837 ft 355 kts 258°
2026-05-06 15:30 19.33493 -99.30775 21282 ft 356 kts 258°
2026-05-06 15:30 19.33239 -99.32490 21563 ft 357 kts 258°
2026-05-06 15:31 19.32724 -99.35973 22122 ft 359 kts 258°
2026-05-06 15:31 19.32469 -99.37703 22573 ft 360 kts 258°
2026-05-06 15:31 19.31927 -99.41190 23036 ft 367 kts 256°
2026-05-06 15:32 19.30885 -99.46635 23360 ft 387 kts 255°
2026-05-06 15:32 19.30500 -99.48531 23459 ft 394 kts 255°
2026-05-06 15:32 19.29917 -99.51403 23597 ft 403 kts 255°
2026-05-06 15:32 19.29335 -99.54328 23879 ft 408 kts 255°
2026-05-06 15:33 19.28768 -99.57241 24198 ft 411 kts 255°
2026-05-06 15:33 19.28197 -99.60215 24407 ft 413 kts 256°
2026-05-06 15:33 19.27626 -99.63194 24460 ft 412 kts 256°
2026-05-06 15:33 19.27054 -99.66168 24426 ft 412 kts 255°
2026-05-06 15:34 19.26481 -99.69138 24391 ft 412 kts 255°
2026-05-06 15:34 19.25905 -99.72106 24365 ft 412 kts 255°
2026-05-06 15:34 19.25327 -99.75078 24321 ft 412 kts 255°
2026-05-06 15:34 19.24750 -99.78045 24292 ft 412 kts 255°
2026-05-06 15:35 19.24174 -99.81012 24255 ft 413 kts 256°
2026-05-06 15:35 19.23611 -99.84004 24547 ft 415 kts 256°
2026-05-06 15:35 19.23064 -99.87006 24866 ft 416 kts 256°
2026-05-06 15:35 19.22523 -99.90025 25183 ft 418 kts 256°
2026-05-06 15:36 19.21983 -99.93052 25476 ft 419 kts 257°
2026-05-06 15:36 19.21446 -99.96049 25816 ft 421 kts 257°
2026-05-06 15:36 19.20895 -99.99098 26123 ft 423 kts 257°
2026-05-06 15:36 19.20340 -100.02162 26458 ft 424 kts 257°
2026-05-06 15:37 19.19780 -100.05235 26778 ft 426 kts 257°
2026-05-06 15:37 19.19217 -100.08317 27094 ft 428 kts 257°
2026-05-06 15:37 19.18771 -100.11443 27406 ft 431 kts 264°
2026-05-06 15:37 19.18826 -100.14629 27677 ft 436 kts 275°
2026-05-06 15:38 19.19420 -100.17781 27970 ft 440 kts 285°
2026-05-06 15:38 19.20396 -100.20861 28279 ft 442 kts 287°
2026-05-06 15:38 19.21387 -100.23948 28605 ft 444 kts 287°
2026-05-06 15:38 19.22377 -100.27050 28947 ft 446 kts 286°
2026-05-06 15:39 19.23364 -100.30161 29257 ft 447 kts 286°
2026-05-06 15:39 19.24357 -100.33296 29621 ft 449 kts 286°
2026-05-06 15:39 19.25349 -100.36430 29964 ft 451 kts 287°
2026-05-06 15:39 19.26348 -100.39585 30261 ft 452 kts 286°
2026-05-06 15:40 19.27350 -100.42752 30507 ft 454 kts 286°
2026-05-06 15:40 19.28352 -100.45919 30827 ft 454 kts 286°
2026-05-06 15:40 19.29355 -100.49081 31219 ft 452 kts 286°
2026-05-06 15:40 19.30353 -100.52234 31612 ft 451 kts 286°
2026-05-06 15:41 19.31350 -100.55380 31913 ft 451 kts 286°
2026-05-06 15:41 19.32343 -100.58517 31972 ft 445 kts 286°
2026-05-06 15:41 19.34283 -100.64655 31973 ft 436 kts 285°
2026-05-06 15:42 19.36190 -100.70691 32007 ft 435 kts 286°
2026-05-06 15:42 19.38164 -100.76755 32005 ft 436 kts 287°
2026-05-06 15:43 19.40272 -100.82787 32002 ft 436 kts 288°
2026-05-06 15:43 19.42387 -100.88839 32011 ft 442 kts 287°
2026-05-06 15:44 19.44475 -100.94916 32006 ft 437 kts 287°
2026-05-06 15:44 19.46559 -101.00955 32037 ft 436 kts 287°
2026-05-06 15:45 19.48617 -101.06951 32038 ft 436 kts 287°
2026-05-06 15:45 19.50690 -101.13029 32037 ft 436 kts 287°
2026-05-06 15:46 19.52742 -101.19031 32039 ft 436 kts 287°
2026-05-06 15:46 19.54808 -101.25065 32043 ft 436 kts 287°
2026-05-06 15:47 19.56871 -101.31107 32067 ft 436 kts 287°
2026-05-06 15:47 19.58931 -101.37153 32070 ft 435 kts 287°
2026-05-06 15:48 19.60986 -101.43196 32069 ft 435 kts 287°
2026-05-06 15:48 19.63044 -101.49239 32076 ft 435 kts 287°
2026-05-06 15:49 19.65097 -101.55286 32079 ft 435 kts 287°
2026-05-06 15:49 19.67132 -101.61298 32076 ft 435 kts 287°
2026-05-06 15:50 19.69162 -101.67285 31725 ft 420 kts 287°
2026-05-06 15:50 19.70144 -101.70171 31288 ft 411 kts 287°
2026-05-06 15:50 19.71103 -101.73001 30847 ft 404 kts 287°
2026-05-06 15:51 19.72046 -101.75787 30425 ft 398 kts 287°
2026-05-06 15:51 19.72974 -101.78532 29979 ft 392 kts 287°
2026-05-06 15:51 19.73883 -101.81227 29558 ft 385 kts 286°
2026-05-06 15:51 19.74774 -101.83874 29169 ft 377 kts 286°
2026-05-06 15:52 19.75646 -101.86467 28778 ft 369 kts 286°
2026-05-06 15:52 19.76503 -101.89012 28418 ft 365 kts 286°
2026-05-06 15:52 19.77357 -101.91547 28057 ft 364 kts 286°
2026-05-06 15:52 19.78209 -101.94076 27686 ft 363 kts 286°
2026-05-06 15:53 19.79058 -101.96601 27316 ft 362 kts 285°
2026-05-06 15:53 19.79901 -101.99113 26936 ft 360 kts 285°
2026-05-06 15:53 19.80741 -102.01609 26560 ft 358 kts 285°
2026-05-06 15:53 19.81575 -102.04093 26189 ft 357 kts 285°
2026-05-06 15:54 19.82409 -102.06570 25806 ft 356 kts 285°
2026-05-06 15:54 19.83230 -102.09010 25424 ft 355 kts 285°
2026-05-06 15:54 19.84072 -102.11514 25035 ft 355 kts 285°
2026-05-06 15:54 19.84890 -102.13948 24638 ft 355 kts 285°
2026-05-06 15:55 19.85720 -102.16424 24237 ft 355 kts 285°
2026-05-06 15:55 19.86548 -102.18896 23823 ft 355 kts 285°
2026-05-06 15:55 19.87377 -102.21374 23378 ft 356 kts 285°
2026-05-06 15:55 19.88203 -102.23848 22942 ft 355 kts 285°
2026-05-06 15:56 19.89025 -102.26315 22538 ft 353 kts 285°
2026-05-06 15:56 19.89842 -102.28767 22126 ft 352 kts 285°
2026-05-06 15:56 19.90662 -102.31223 21704 ft 354 kts 286°
2026-05-06 15:56 19.91490 -102.33704 21247 ft 357 kts 286°
2026-05-06 15:57 19.92317 -102.36182 20817 ft 356 kts 286°
2026-05-06 15:57 19.93150 -102.38669 20385 ft 356 kts 287°
2026-05-06 15:57 19.93980 -102.41146 19957 ft 355 kts 286°
2026-05-06 15:57 19.94807 -102.43623 19517 ft 355 kts 287°
2026-05-06 15:58 19.95619 -102.46060 19088 ft 354 kts 287°
2026-05-06 15:58 19.96440 -102.48532 18646 ft 354 kts 287°
2026-05-06 15:58 19.97259 -102.51000 18160 ft 355 kts 287°
2026-05-06 15:58 19.98089 -102.53505 17473 ft 361 kts 287°
2026-05-06 15:59 19.98922 -102.56011 17042 ft 359 kts 287°
2026-05-06 15:59 19.99800 -102.58492 16589 ft 359 kts 294°
2026-05-06 15:59 20.01157 -102.60719 16141 ft 361 kts 310°
2026-05-06 15:59 20.03040 -102.62484 15699 ft 362 kts 326°
2026-05-06 16:00 20.05260 -102.63760 15244 ft 363 kts 332°
2026-05-06 16:00 20.07512 -102.64970 14795 ft 363 kts 333°
2026-05-06 16:00 20.09747 -102.66209 14398 ft 361 kts 327°
2026-05-06 16:00 20.11637 -102.67893 14171 ft 351 kts 310°
2026-05-06 16:01 20.13250 -102.69812 13938 ft 345 kts 310°
2026-05-06 16:01 20.14834 -102.71709 13705 ft 340 kts 310°
2026-05-06 16:01 20.16393 -102.73578 13462 ft 336 kts 310°
2026-05-06 16:01 20.17933 -102.75423 13178 ft 332 kts 310°
2026-05-06 16:02 20.19464 -102.77259 12814 ft 331 kts 310°
2026-05-06 16:02 20.20994 -102.79091 12427 ft 331 kts 310°
2026-05-06 16:02 20.22521 -102.80921 12024 ft 331 kts 310°
2026-05-06 16:02 20.24049 -102.82756 11623 ft 331 kts 310°
2026-05-06 16:03 20.25570 -102.84586 11214 ft 327 kts 310°
2026-05-06 16:03 20.27061 -102.86379 10825 ft 318 kts 310°
2026-05-06 16:03 20.28361 -102.87939 10485 ft 311 kts 310°
2026-05-06 16:04 20.29667 -102.89504 10146 ft 303 kts 310°
2026-05-06 16:04 20.29959 -102.89855 10068 ft 302 kts 310°
2026-05-06 16:04 20.30879 -102.90958 9843 ft 296 kts 310°
2026-05-06 16:04 20.31292 -102.91453 9796 ft 294 kts 310°
2026-05-06 16:05 20.32486 -102.92884 9753 ft 290 kts 309°
2026-05-06 16:05 20.33799 -102.94456 9362 ft 281 kts 310°
2026-05-06 16:05 20.35071 -102.95986 9180 ft 267 kts 310°
2026-05-06 16:05 20.36264 -102.97425 9095 ft 252 kts 310°
2026-05-06 16:06 20.37405 -102.98801 8989 ft 246 kts 309°
2026-05-06 16:06 20.38535 -103.00162 8891 ft 245 kts 310°
2026-05-06 16:06 20.39600 -103.01515 8785 ft 237 kts 302°
2026-05-06 16:06 20.40377 -103.03020 8689 ft 227 kts 292°
2026-05-06 16:07 20.40997 -103.04528 8592 ft 219 kts 292°
2026-05-06 16:07 20.41611 -103.06009 8510 ft 217 kts 292°
2026-05-06 16:07 20.42227 -103.07474 8412 ft 217 kts 293°
2026-05-06 16:07 20.42846 -103.08942 8205 ft 217 kts 293°
2026-05-06 16:08 20.43463 -103.10404 8093 ft 211 kts 293°
2026-05-06 16:08 20.44051 -103.11796 7954 ft 198 kts 292°
2026-05-06 16:08 20.44595 -103.13083 7893 ft 186 kts 292°
2026-05-06 16:08 20.45121 -103.14333 7696 ft 183 kts 294°
2026-05-06 16:09 20.45639 -103.15562 7523 ft 180 kts 293°
2026-05-06 16:09 20.46152 -103.16779 7314 ft 180 kts 294°
2026-05-06 16:09 20.46666 -103.18000 7106 ft 180 kts 294°
2026-05-06 16:09 20.47178 -103.19215 6926 ft 179 kts 294°
2026-05-06 16:10 20.47687 -103.20423 6733 ft 177 kts 294°
2026-05-06 16:10 20.48184 -103.21605 6544 ft 177 kts 294°
2026-05-06 16:10 20.48688 -103.22802 6341 ft 177 kts 294°
2026-05-06 16:10 20.49187 -103.23987 6164 ft 168 kts 295°
2026-05-06 16:11 20.49650 -103.25089 6014 ft 160 kts 294°
2026-05-06 16:11 20.50100 -103.26161 5828 ft 157 kts 295°
2026-05-06 16:11 20.50548 -103.27216 5581 ft 155 kts 294°
2026-05-06 16:11 20.50985 -103.28259 5344 ft 153 kts 295°
2026-05-06 16:12 20.51418 -103.29294 5053 ft 152 kts 295°
2026-05-06 16:12 20.51777 -103.30148 5029 ft 70 kts 294°
2026-05-06 16:12 20.51946 -103.30548 5028 ft 50 kts 294°
2026-05-06 16:12 20.52089 -103.30789 5028 ft 30 kts 314°
2026-05-06 16:13 20.52226 -103.30901 5030 ft 22 kts 324°
2026-05-06 16:13 20.52350 -103.30996 5031 ft 14 kts 333°
2026-05-06 16:13 20.52421 -103.30955 5030 ft 12 kts 60°
2026-05-06 16:13 20.52454 -103.30861 5030 ft 14 kts 70°
2026-05-06 16:14 20.52491 -103.30755 5029 ft 16 kts 70°
2026-05-06 16:14 20.52531 -103.30639 5029 ft 17 kts 70°
2026-05-06 16:14 20.52516 -103.30565 5029 ft 11 kts 154°
2026-05-06 16:14 20.52449 -103.30525 5029 ft 11 kts 133°
2026-05-06 16:15 20.52420 -103.30444 5028 ft 12 kts 99°
2026-05-06 16:15 20.52454 -103.30371 5029 ft 12 kts 96°
2026-05-06 16:15 20.52427 -103.30287 5029 ft 13 kts 109°
2026-05-06 16:15 20.52403 -103.30193 5029 ft 14 kts 102°
2026-05-06 16:16 20.52384 -103.30129 5029 ft 14 kts 110°
2026-05-06 16:16 20.52387 -103.30087 5029 ft 4 kts 23°
2026-05-06 16:16 20.52418 -103.30076 5029 ft 5 kts 19°
2026-05-06 16:16 20.52431 -103.30071 5029 ft 0 kts 19°